FW6899 Weather Reports


Display with metric or nautical units.
time (UTC)temp
F
wind
direction
speed
MPH
gust
MPH
rain 1hr
in
rain 24hr
in
rain mn
in
humidity
%
barometer
mb
20260506031532 59 0 0.0 3.0 0.00 0.02 0.02 76 1017.1
20260506031103 59 48 0.0 3.0 0.00 0.02 0.02 75 1017.1
20260506030517 59 131 0.0 3.0 0.00 0.02 0.02 76 1017.1
20260506030034 59 0 0.0 2.0 0.00 0.02 0.02 77 1017.0
20260506025515 59 136 0.0 2.0 0.00 0.02 0.02 76 1017.0
20260506025015 59 198 0.0 2.0 0.00 0.02 0.02 76 1016.9
20260506024535 59 0 0.0 2.0 0.00 0.02 0.02 76 1016.9
20260506024014 60 303 0.0 5.0 0.00 0.02 0.02 76 1016.8
20260506023516 60 0 0.0 6.0 0.00 0.02 0.02 76 1016.7
20260506023033 60 0 0.0 6.0 0.00 0.02 0.02 75 1016.5
20260506022517 60 0 0.0 4.0 0.00 0.02 0.02 75 1016.5
20260506022014 61 224 0.0 3.0 0.00 0.02 0.02 74 1016.5
20260506021530 61 0 0.0 2.0 0.00 0.02 0.02 74 1016.5
20260506021016 61 0 0.0 2.0 0.00 0.02 0.02 73 1016.5
20260506020515 61 202 0.0 2.0 0.00 0.02 0.02 72 1016.6
20260506020032 61 0 0.0 2.0 0.00 0.02 0.02 72 1016.5
20260506015515 61 0 0.0 3.0 0.00 0.02 0.02 72 1016.5
20260506015017 61 0 0.0 3.0 0.00 0.02 0.02 72 1016.5
20260506014544 61 0 0.0 3.0 0.00 0.02 0.02 72 1016.5
20260506014013 62 0 0.0 3.0 0.00 0.02 0.02 71 1016.5
20260506013513 62 0 0.0 1.0 0.00 0.02 0.02 71 1016.6
20260506013032 62 0 0.0 1.0 0.00 0.02 0.02 72 1016.5
20260506012513 62 211 0.0 3.0 0.00 0.02 0.02 71 1016.6
20260506012014 62 0 0.0 3.0 0.00 0.02 0.02 71 1016.5
20260506011534 62 0 0.0 3.0 0.00 0.02 0.02 71 1016.4
20260506011015 62 173 0.0 4.0 0.00 0.02 0.02 71 1016.4
20260506010513 62 178 0.0 4.0 0.00 0.02 0.02 71 1016.5
20260506010031 62 226 0.0 3.0 0.00 0.02 0.02 70 1016.4
20260506005513 62 53 0.0 3.0 0.00 0.02 0.02 71 1016.4
20260506005017 62 89 0.0 2.0 0.00 0.02 0.02 70 1016.4
20260506004540 62 125 0.0 6.0 0.00 0.02 0.02 71 1016.4
20260506004016 62 0 0.0 7.0 0.00 0.02 0.02 70 1016.4
20260506003517 62 201 2.0 7.0 0.00 0.02 0.02 70 1016.3
20260506003034 62 46 1.0 6.0 0.00 0.02 0.02 69 1016.3
20260506002513 63 311 0.0 3.0 0.00 0.02 0.02 70 1016.2
20260506002015 62 0 0.0 7.0 0.00 0.02 0.02 70 1016.2
20260506001534 62 0 0.0 7.0 0.00 0.02 0.02 71 1016.1
20260506001015 62 0 0.0 4.0 0.00 0.02 0.02 70 1016.1
20260506000514 62 0 1.0 4.0 0.00 0.02 0.02 71 1016.1
20260506000040 62 47 1.0 4.0 0.00 0.02 0.02 70 1016.0
20260505235515 63 212 0.0 4.0 0.00 0.02 0.02 70 1016.0
20260505235013 63 0 0.0 5.0 0.00 0.02 0.02 71 1016.1
20260505234536 62 28 1.0 5.0 0.00 0.02 0.02 71 1016.1
20260505234014 63 238 1.0 5.0 0.00 0.02 0.02 70 1016.1
20260505233516 63 55 1.0 5.0 0.00 0.02 0.02 71 1016.2
20260505233033 63 80 1.0 5.0 0.00 0.02 0.02 70 1016.3
20260505232514 63 0 0.0 5.0 0.00 0.02 0.02 70 1016.2
20260505232015 63 207 1.0 7.0 0.00 0.02 0.02 70 1016.3
20260505231531 63 119 1.0 7.0 0.00 0.02 0.02 71 1016.3
20260505231019 63 221 1.0 5.0 0.00 0.02 0.02 71 1016.3
20260505230516 63 136 2.0 5.0 0.00 0.02 0.02 70 1016.2
20260505230037 63 221 0.0 4.0 0.00 0.02 0.02 70 1016.3
20260505225513 63 215 0.0 7.0 0.00 0.02 0.02 70 1016.2
20260505225013 63 237 0.0 7.0 0.00 0.02 0.02 70 1016.2
20260505224539 63 0 1.0 7.0 0.00 0.02 0.02 70 1016.2
20260505224015 63 211 1.0 4.0 0.00 0.02 0.02 69 1016.2
20260505223517 63 227 1.0 4.0 0.00 0.02 0.02 70 1016.3
20260505223041 63 0 0.0 4.0 0.00 0.02 0.02 70 1016.3
20260505222513 63 234 0.0 4.0 0.00 0.02 0.02 70 1016.3
20260505222013 63 227 0.0 4.0 0.00 0.02 0.02 69 1016.4
20260505221532 64 213 1.0 3.0 0.00 0.02 0.02 68 1016.4
20260505221015 64 183 0.0 4.0 0.00 0.02 0.02 67 1016.4
20260505220514 64 0 0.0 4.0 0.00 0.02 0.02 68 1016.4
20260505220039 64 222 0.0 4.0 0.00 0.02 0.02 68 1016.3
20260505215516 64 0 0.0 1.0 0.00 0.02 0.02 67 1016.3
20260505215014 64 219 0.0 4.0 0.00 0.02 0.02 67 1016.4
20260505214549 63 0 0.0 4.0 0.00 0.02 0.02 69 1016.5
20260505214015 63 225 1.0 4.0 0.00 0.02 0.02 68 1016.5
20260505213514 63 85 0.0 2.0 0.00 0.02 0.02 68 1016.6
20260505213050 63 0 0.0 3.0 0.00 0.02 0.02 69 1016.6
20260505212514 63 0 0.0 3.0 0.00 0.02 0.02 69 1016.6
20260505212016 63 0 0.0 3.0 0.00 0.02 0.02 69 1016.8
20260505211532 63 0 0.0 2.0 0.00 0.02 0.02 69 1016.8
20260505211014 63 215 0.0 3.0 0.00 0.02 0.02 70 1016.7
20260505210514 63 220 0.0 4.0 0.00 0.02 0.02 69 1016.8
20260505210032 62 251 0.0 4.0 0.00 0.02 0.02 69 1016.6
20260505205519 63 205 1.0 4.0 0.00 0.02 0.02 68 1016.6
20260505205021 63 22 1.0 4.0 0.00 0.02 0.02 68 1016.5
20260505204536 63 221 0.0 3.0 0.00 0.02 0.02 69 1016.6
20260505204015 63 92 0.0 3.0 0.00 0.02 0.02 70 1016.6
20260505203514 63 227 0.0 3.0 0.00 0.02 0.02 70 1016.7
20260505203041 63 0 0.0 1.0 0.00 0.02 0.02 70 1016.6
20260505202515 63 165 0.0 2.0 0.00 0.02 0.02 70 1016.6
20260505202016 63 207 0.0 3.0 0.00 0.02 0.02 69 1016.7
20260505201545 63 331 0.0 3.0 0.00 0.02 0.02 69 1016.7
20260505201014 64 0 0.0 1.0 0.00 0.02 0.02 69 1016.7
20260505200515 64 0 0.0 1.0 0.00 0.02 0.02 69 1016.8
20260505200033 64 0 0.0 1.0 0.00 0.02 0.02 68 1016.8
20260505195514 64 205 0.0 1.0 0.00 0.02 0.02 68 1016.8
20260505195012 64 0 0.0 1.0 0.00 0.02 0.02 69 1016.8
20260505194533 63 0 0.0 2.0 0.00 0.02 0.02 70 1016.8
20260505194017 63 92 0.0 2.0 0.00 0.02 0.02 70 1016.9
20260505193513 63 202 0.0 2.0 0.00 0.02 0.02 70 1016.8
20260505193044 63 0 0.0 4.0 0.00 0.02 0.02 72 1017.0
20260505192516 62 0 0.0 4.0 0.00 0.02 0.02 72 1017.0
20260505192015 63 192 0.0 4.0 0.00 0.02 0.02 70 1017.0
20260505191541 63 90 0.0 3.0 0.00 0.02 0.02 72 1016.9
20260505191018 63 201 0.0 2.0 0.00 0.02 0.02 70 1016.8
20260505190514 62 0 0.0 1.0 0.00 0.02 0.02 73 1016.9
20260505190036 62 0 0.0 1.0 0.00 0.02 0.02 74 1016.9
20260505185520 61 221 0.0 1.0 0.00 0.02 0.02 74 1016.7
20260505185013 61 212 0.0 2.0 0.00 0.02 0.02 75 1016.8
20260505184530 61 0 0.0 2.0 0.00 0.02 0.02 76 1016.8
20260505184014 61 219 0.0 1.0 0.00 0.02 0.02 76 1016.8
20260505183514 60 0 0.0 1.0 0.00 0.02 0.02 78 1016.8
20260505183045 60 0 0.0 3.0 0.00 0.02 0.02 79 1016.9
20260505182513 59 0 0.0 3.0 0.00 0.02 0.02 79 1017.0
20260505182016 59 211 0.0 1.0 0.00 0.02 0.02 80 1016.9
20260505181533 59 215 0.0 1.0 0.00 0.02 0.02 80 1017.0
20260505181021 59 0 0.0 1.0 0.00 0.02 0.02 81 1016.9
20260505180514 58 0 0.0 1.0 0.00 0.02 0.02 82 1016.8
20260505180036 58 219 0.0 1.0 0.00 0.02 0.02 81 1016.7
20260505175515 58 0 0.0 2.0 0.00 0.02 0.02 82 1016.7
20260505175020 58 0 0.0 2.0 0.00 0.02 0.02 82 1016.7
20260505174539 58 236 0.0 2.0 0.00 0.02 0.02 82 1016.7
20260505174013 58 192 0.0 2.0 0.00 0.02 0.02 83 1016.5
20260505173513 58 0 0.0 2.0 0.00 0.02 0.02 83 1016.4
20260505173038 58 196 0.0 1.0 0.00 0.02 0.02 82 1016.5
20260505172513 57 0 0.0 1.0 0.00 0.02 0.02 84 1016.5
20260505172025 57 0 0.0 1.0 0.00 0.02 0.02 84 1016.4
20260505171539 57 0 0.0 1.0 0.00 0.02 0.02 84 1016.4
20260505171012 56 0 0.0 1.0 0.00 0.02 0.02 85 1016.4
20260505170519 56 0 0.0 1.0 0.00 0.02 0.02 85 1016.5
20260505170034 56 0 0.0 1.0 0.00 0.02 0.02 85 1016.3
20260505165514 56 0 0.0 1.0 0.00 0.02 0.02 86 1016.4
20260505165014 56 0 0.0 1.0 0.00 0.02 0.02 85 1016.4
20260505164537 56 221 0.0 1.0 0.00 0.02 0.02 84 1016.4
20260505164013 56 0 0.0 1.0 0.00 0.02 0.02 84 1016.3
20260505163512 56 0 0.0 1.0 0.00 0.02 0.02 84 1016.3
20260505163031 56 0 0.0 1.0 0.00 0.02 0.02 84 1016.3
20260505162514 56 0 0.0 1.0 0.00 0.02 0.02 84 1016.2
20260505162016 56 0 0.0 2.0 0.00 0.02 0.02 85 1016.1
20260505161532 56 0 0.0 3.0 0.00 0.02 0.02 85 1016.1
20260505161013 56 0 0.0 3.0 0.00 0.02 0.02 85 1016.2
20260505160514 56 219 0.0 1.0 0.00 0.02 0.02 85 1016.1
20260505153034 55 0 0.0 1.0 0.00 0.02 0.02 85 1015.8
20260505152516 55 0 0.0 1.0 0.00 0.02 0.02 86 1015.9
20260505152020 55 0 0.0 1.0 0.00 0.02 0.02 86 1015.7
20260505151533 55 0 0.0 0.0 0.00 0.02 0.02 86 1015.7
20260505151015 55 0 0.0 0.0 0.00 0.02 0.02 86 1015.7
20260505150517 55 0 0.0 0.0 0.00 0.02 0.02 86 1015.7
20260505140522 53 0 0.0 0.0 0.00 0.02 0.02 88 1015.4
20260505125013 53 0 0.0 0.0 0.01 0.02 0.02 90 1015.5
20260505124533 53 0 0.0 0.0 0.01 0.02 0.02 89 1015.4
20260505124016 52 0 0.0 0.0 0.01 0.02 0.02 89 1015.5
20260505123516 53 0 0.0 0.0 0.01 0.02 0.02 89 1015.3
20260505123046 53 0 0.0 0.0 0.01 0.02 0.02 90 1015.4
20260505122515 52 0 0.0 0.0 0.01 0.02 0.02 90 1015.3
20260505122014 52 0 0.0 0.0 0.01 0.02 0.02 90 1015.3
20260505121534 52 0 0.0 1.0 0.01 0.02 0.02 90 1015.2
20260505121013 52 0 0.0 1.0 0.01 0.02 0.02 90 1015.2
20260505120513 53 0 0.0 1.0 0.01 0.02 0.02 89 1015.1
20260505120046 53 0 0.0 0.0 0.01 0.02 0.02 90 1015.2
20260505115513 53 0 0.0 0.0 0.00 0.01 0.01 89 1015.4
20260505115014 53 0 0.0 0.0 0.00 0.01 0.01 89 1015.4
20260505114545 53 0 0.0 0.0 0.00 0.01 0.01 89 1015.3
20260505114013 53 0 0.0 0.0 0.00 0.01 0.01 89 1015.4
20260505113513 53 0 0.0 0.0 0.00 0.01 0.01 89 1015.5
20260505113031 53 0 0.0 0.0 0.01 0.01 0.01 89 1015.6
20260505112512 53 0 0.0 0.0 0.01 0.01 0.01 88 1015.6
20260505112014 53 0 0.0 0.0 0.01 0.01 0.01 88 1015.5
20260505111533 52 0 0.0 0.0 0.01 0.01 0.01 88 1015.5
20260505111014 52 0 0.0 0.0 0.01 0.01 0.01 88 1015.5
20260505110515 53 0 0.0 0.0 0.01 0.01 0.01 88 1015.5
20260505102014 53 0 0.0 0.0 0.00 0.00 0.00 86 1015.3
20260505101530 53 0 0.0 0.0 0.00 0.00 0.00 85 1015.4
20260505101015 53 0 0.0 1.0 0.00 0.00 0.00 85 1015.5
20260505100512 53 0 0.0 1.0 0.00 0.00 0.00 84 1015.4
20260505100034 53 0 0.0 0.0 0.00 0.00 0.00 85 1015.5
20260505095514 53 0 0.0 1.0 0.00 0.00 0.00 85 1015.4
20260505095018 53 0 0.0 1.0 0.00 0.00 0.00 84 1015.5
20260505094534 53 0 0.0 0.0 0.00 0.00 0.00 84 1015.5
20260505094013 53 0 0.0 0.0 0.00 0.00 0.00 85 1015.7
20260505093514 53 0 0.0 0.0 0.00 0.00 0.00 85 1015.8
20260505093040 53 0 0.0 0.0 0.00 0.00 0.00 85 1015.8
20260505092511 53 0 0.0 0.0 0.00 0.00 0.00 85 1015.8
20260505092015 53 0 0.0 0.0 0.00 0.00 0.00 85 1015.8
20260505091540 53 0 0.0 0.0 0.00 0.00 0.00 85 1015.8
20260505091013 53 0 0.0 0.0 0.00 0.00 0.00 85 1015.9
20260505090514 53 0 0.0 0.0 0.00 0.00 0.00 85 1015.9
20260505090045 53 0 0.0 1.0 0.00 0.00 0.00 84 1016.1
20260505085515 53 0 0.0 1.0 0.00 0.00 0.00 83 1016.0
20260505085013 53 0 0.0 0.0 0.00 0.00 0.00 83 1016.1
20260505084532 53 0 0.0 0.0 0.00 0.00 0.00 82 1016.0
20260505084014 53 0 0.0 0.0 0.00 0.00 0.00 82 1016.1
20260505083516 53 0 0.0 0.0 0.00 0.00 0.00 83 1016.1
20260505083030 53 0 0.0 0.0 0.00 0.00 0.00 82 1016.1
20260505082512 53 0 0.0 0.0 0.00 0.00 0.00 82 1016.1
20260505082013 53 0 0.0 1.0 0.00 0.00 0.00 82 1016.1
20260505081542 53 0 0.0 2.0 0.00 0.00 0.00 83 1016.2
20260505081015 53 0 0.0 2.0 0.00 0.00 0.00 82 1016.3
20260505080513 53 236 0.0 1.0 0.00 0.00 0.00 82 1016.3
20260505080046 53 0 0.0 1.0 0.00 0.00 0.00 82 1016.3
20260505075513 53 0 0.0 1.0 0.00 0.00 0.00 81 1016.4
20260505075013 53 0 0.0 1.0 0.00 0.00 0.00 81 1016.4
20260505074530 54 0 0.0 1.0 0.00 0.00 0.00 80 1016.4
20260505074012 54 0 0.0 1.0 0.00 0.00 0.00 80 1016.5
20260505073514 54 0 0.0 1.0 0.00 0.00 0.00 79 1016.4
20260505073044 54 0 0.0 0.0 0.00 0.00 0.00 79 1016.5
20260505072512 54 0 0.0 1.0 0.00 0.00 0.00 78 1016.5
20260505072015 54 0 0.0 1.0 0.00 0.00 0.00 78 1016.4
20260505071532 54 0 0.0 1.0 0.00 0.00 0.00 78 1016.3
20260505071014 54 0 0.0 1.0 0.00 0.00 0.00 78 1016.3
20260505070511 54 0 0.0 0.0 0.00 0.00 0.00 78 1016.2
20260505070030 54 0 0.0 0.0 0.00 0.00 0.00 78 1016.2
20260505065515 54 0 0.0 0.0 0.00 0.00 0.00 77 1016.2
20260505065013 55 0 0.0 0.0 0.00 0.00 0.00 77 1016.1
20260505064531 55 0 0.0 0.0 0.00 0.00 0.00 77 1016.2
20260505064014 55 0 0.0 0.0 0.00 0.00 0.00 76 1016.1
20260505063518 55 0 0.0 0.0 0.00 0.00 0.00 76 1016.2
20260505063033 55 0 0.0 1.0 0.00 0.00 0.00 76 1016.1
20260505062512 55 0 0.0 1.0 0.00 0.00 0.00 75 1016.1
20260505062014 55 0 0.0 1.0 0.00 0.00 0.00 75 1015.9
20260505061531 55 0 0.0 0.0 0.00 0.00 0.00 76 1015.9
20260505061015 55 0 0.0 1.0 0.00 0.00 0.00 76 1015.9
20260505060514 55 0 0.0 1.0 0.00 0.00 0.00 77 1015.8
20260505060034 55 0 0.0 0.0 0.00 0.00 0.00 77 1015.8
20260505055518 55 0 0.0 3.0 0.00 0.00 0.00 77 1015.8
20260505055017 55 0 0.0 3.0 0.00 0.00 0.00 77 1015.8
20260505054530 55 0 0.0 2.0 0.00 0.00 0.00 77 1015.9
20260505054014 55 0 0.0 2.0 0.00 0.00 0.00 77 1016.0
20260505053513 55 0 0.0 1.0 0.00 0.00 0.00 77 1016.1
20260505053030 55 248 0.0 1.0 0.00 0.00 0.00 78 1016.1
20260505052520 55 0 0.0 1.0 0.00 0.00 0.00 79 1016.1
20260505052018 55 0 0.0 1.0 0.00 0.00 0.00 78 1016.2
20260505051536 55 0 0.0 2.0 0.00 0.00 0.00 78 1016.2
20260505051015 55 0 0.0 2.0 0.00 0.00 0.00 78 1016.2
20260505050516 56 219 0.0 1.0 0.00 0.00 0.00 79 1016.4
20260505050109 56 129 0.0 1.0 0.00 0.00 0.00 79 1016.6
20260505041548 56 0 0.0 0.0 0.00 0.00 0.00 81 1016.0
20260505041014 56 0 0.0 0.0 0.00 0.00 0.00 81 1016.0
20260505040516 56 0 0.0 0.0 0.00 0.00 0.00 81 1015.8
20260505040031 56 0 0.0 0.0 0.00 0.00 0.00 81 1015.8
20260505035515 56 0 0.0 0.0 0.00 0.00 0.00 80 1015.8
20260505035014 56 0 0.0 1.0 0.00 0.00 0.00 80 1015.7
20260505034532 56 0 0.0 1.0 0.00 0.00 0.00 80 1015.6
20260505034015 56 0 0.0 0.0 0.00 0.00 0.00 80 1015.7
20260505033513 56 0 0.0 0.0 0.00 0.00 0.00 80 1015.6
20260505033032 57 0 0.0 0.0 0.00 0.00 0.00 80 1015.4
20260505032516 57 0 0.0 0.0 0.00 0.00 0.00 79 1015.3
20260505032015 57 0 0.0 0.0 0.00 0.00 0.00 79 1015.4